This is the latest recevied weather packets stored in our database for station/object KA9CBS. If no packets are shown the sender has not sent any weather packets the latest 10 day(s).
| Time | Temp. | Humidity | Pressure | Rain* | Wind** | Luminosity | Snow |
|---|---|---|---|---|---|---|---|
| 1787952039 | 28.33° C | 55% | 1020.4 hPa | 0 mm | - | 145 W/m² | - |
| 1787951738 | 28.89° C | 54% | 1020.4 hPa | 0 mm | - | 75 W/m² | - |
| 1787951434 | 28.89° C | 51% | 1020.4 hPa | 0 mm | - | 68 W/m² | - |
| 1787951130 | 30° C | 52% | 1020.6 hPa | 0 mm | - | 85 W/m² | - |
| 1787950826 | 30° C | 52% | 1020.4 hPa | 0 mm | - | 553 W/m² | - |
| 1787950520 | 30° C | 50% | 1020.6 hPa | 0 mm | - | 505 W/m² | - |
| 1787950217 | 30° C | 50% | 1020.6 hPa | 0 mm | - | 608 W/m² | - |
| 1787949913 | 30° C | 50% | 1020.7 hPa | 0 mm | - | 622 W/m² | - |
| 1787949602 | 29.44° C | 53% | 1020.5 hPa | 0 mm | - | 636 W/m² | - |
| 1787949297 | 30° C | 54% | 1020.7 hPa | 0 mm | - | 633 W/m² | - |
| 1787948997 | 29.44° C | 52% | 1020.6 hPa | 0 mm | - | 635 W/m² | - |
| 1787948693 | 29.44° C | 54% | 1020.5 hPa | 0 mm | - | 609 W/m² | - |
| 1787948389 | 30° C | 52% | 1020.4 hPa | 0 mm | - | 501 W/m² | - |
| 1787948088 | 30° C | 51% | 1020.8 hPa | 0 mm | - | 647 W/m² | - |
| 1787947788 | 29.44° C | 52% | 1020.9 hPa | 0 mm | - | 640 W/m² | - |
| 1787947486 | 28.89° C | 50% | 1021 hPa | 0 mm | - | 642 W/m² | - |
| 1787947181 | 28.89° C | 52% | 1020.7 hPa | 0 mm | - | 649 W/m² | - |
| 1787946880 | 29.44° C | 52% | 1020.8 hPa | 0 mm | - | 660 W/m² | - |
| 1787946578 | 28.89° C | 54% | 1020.8 hPa | 0 mm | - | 668 W/m² | - |
| 1787946274 | 28.33° C | 55% | 1020.9 hPa | 0 mm | - | 656 W/m² | - |
| 1787945968 | 28.33° C | 56% | 1021 hPa | 0 mm | - | 239 W/m² | - |
| 1787945663 | 28.89° C | 53% | 1021.1 hPa | 0 mm | - | 102 W/m² | - |
| 1787945363 | 29.44° C | 54% | 1021.1 hPa | 0 mm | - | 675 W/m² | - |
| 1787945059 | 28.89° C | 52% | 1021.3 hPa | 0 mm | - | 703 W/m² | - |
| 1787944755 | 29.44° C | 52% | 1021.3 hPa | 0 mm | - | 692 W/m² | - |
* Rain latest hour (hover to see other rain measurements)
** Current wind speed in m/s (hover to see current wind gust speed)